Location: Newark
(44.5425°N, 10.7801°E)
Time: 00:26:33
(UTC+00:00)

N. Korean satellite - Pass Details

Date: 28 January 2020
Orbit: 456 x 505 km, 97.2° (Epoch: 27 February)

Event Time Altitude Azimuth Distance (km) Brightness Sun altitude
Rises 04:26:18 0° 24° (NNE) 2,551 10.5 -23.9°
Reaches altitude 10° 04:28:37 10° 38° (NE) 1,675 9.7 -23.5°
Maximum altitude 04:31:40 25° 96° (E) 1,010 8.9 -23.0°
Drops below altitude 10° 04:34:44 10° 153° (SSE) 1,685 9.7 -22.4°
Sets 04:37:04 0° 167° (SSE) 2,570 10.5 -22.0°
